Location: Degersen
(52.2871°N, 9.5716°E)
Time: 09:41:14
(UTC+00:00)

IRS-1D - Pass Details

Date: 20 January 2026
Orbit: 737 x 810 km, 98.8° (Epoch: 18 February)

Event Time Altitude Azimuth Distance (km) Brightness Sun altitude
Rises 05:45:56 0° 10° (N) 3,338 6.8 -13.8°
Reaches altitude 10° 05:48:27 10° 2° (N) 2,407 5.9 -13.4°
Maximum altitude 05:53:13 35° 299° (WNW) 1,303 4.2 -12.7°
Drops below altitude 10° 05:57:58 10° 235° (SW) 2,393 5.7 -12.0°
Sets 06:00:27 0° 227° (SW) 3,315 6.5 -11.7°
